星链-4077 (STARLINK-4077 )

导读

STARLINK-4077是美国SpaceX公司星链(Starlink)卫星互联网星座中的一颗低轨卫星,于2022年7月17日发射升空,隶属于SpaceX全球卫星互联网组网计划。 作为星链星座的组成部分,它运行于约550公里高度的近地轨道,属于星链一代组网卫星,为全球偏远地区提供低延迟高速宽带互联网服务,助力实现全球互联网覆盖。

基本信息
目录编号:
53154
目录名称:
STARLINK-4077
国际标识:
2022-083Y
轨道中心:
EARTH
卫星名称:
星链-4077
卫星全名:
星链-4077 (STARLINK-4077 )
卫星状态:
在轨 (已飞行1431 天)
发射日期:
2022-07-17 UTC
国别 :
美国 (US)
星等 :
--
轨道信息
数据来源 国际轨道数据 AOE轨道数据
星历时间 2026-06-17T08:46:06+0800
12小时前
查看轨道信息
2026-06-17T00:00:00+0800
21小时前
查看轨道信息
半长轴 6917.9km 6917.897km
偏心率 0.0001341 0.0001306
轨道倾角 53.161° 53.164°
近地点辐角 84.114° 80.746°
升交点赤经 78.063° 79.696°
平近点角 276.001° 93.794°
近地点 538.835km 538.856km
远地点 540.691km 540.664km
周期 95.438分钟 95.438分钟
每日圈数 15.088336 15.088346
详细信息
固有亮度:
5
最大亮度:
2.5
卫星平台:
Starlink v1.5
覆盖范围:
全球
运营商:
太空探索技术公司
运营商所在国:
美国
制造商(研发单位):
太空探索技术公司
制造商所在国:
美国
使用方式:
暂无
卫星简介
星链(Starlink)计划是由太空探索技术公司(SpaceX)提出的一个巨型低轨卫星互联网星座项目,计划在2019年至2024年间在太空搭建由约1.2万颗卫星组成的“星链”网络,其中1584颗将部署在地球上空550千米处的近地轨道,并从2020年开始工作。该卫星仍在工作。
2D轨道图
3D轨道图
轨道高度分析图
轨道倾角分析图
轨道综合分析图
查看轨道综合分析图